#timestamp,LO_Frequency,Hit,StdDev 
1545825615.3,286046998.3,N
1545825635.2,286046998.5,N
1545825655.9,286047000.0,N
1545825675.7,286047002.2,N
1545825695.6,286047002.3,N
1545825715.4,286047002.1,N
1545825735.3,286047002.0,N
1545825755.1,286047001.4,N
1545825756.0,286047001.4,N
1545825775.8,286047001.8,N
1545825795.7,286047004.3,N
1545825815.5,286047002.1,N
1545825835.3,286047002.7,N
1545825855.2,286047002.6,N
1545825875.0,286047002.0,N
1545825875.9,286047002.0,N
1545825895.8,286047002.5,N
1545825915.6,286046999.7,N
1545825935.4,286047000.7,N
1545825955.3,286046998.8,N
1545825975.1,286046998.3,N
1545825995.8,286047001.0,N
1545826015.7,286047000.3,N
1545826035.5,286047002.7,N
1545826055.4,286047000.5,N
1545826075.2,286047000.7,N
1545826095.0,286047001.0,N
1545826095.9,286047001.0,N
1545826115.8,286047000.4,N
1545826135.6,286047000.3,N
1545826155.4,286046999.8,N
1545826175.3,286047000.4,N
1545826195.1,286047001.0,N
1545826215.9,286047002.3,N
1545826235.7,286047000.0,N
1545826255.5,286047000.2,N
1545826275.4,286047001.7,N
1545826295.2,286047003.9,Y
1545826315.0,286047004.0,P
1545826316.0,286047004.0,N
1545826335.8,286047002.2,N
1545826355.6,286047002.7,N
1545826375.5,286046999.8,N
1545826395.3,286047000.4,N
1545826415.1,286047000.1,N
1545826435.9,286047000.1,N
1545826455.7,286047000.6,N
1545826475.5,286046998.2,N
1545826495.4,286047000.6,N
1545826515.2,286047002.7,N
1545826535.1,286046999.7,N
1545826536.0,286046999.7,N
1545826555.8,286047001.8,N
1545826575.6,286047002.3,N
1545826595.5,286047001.3,N
1545826615.3,286046999.7,N
1545826635.1,286047002.7,N
1545826655.9,286047002.3,N
1545826675.7,286047001.6,N
1545826695.6,286047002.5,N
1545826715.4,286046998.3,N
1545826735.2,286046998.3,N
1545826755.1,286046998.5,N
1545826756.0,286046998.5,N
1545826775.8,286046998.7,N
1545826795.6,286046998.9,N
1545826815.5,286046997.4,N
1545826835.3,286046997.2,N
1545826855.2,286046997.6,N
1545826875.9,286046997.7,N
1545826895.7,286046999.1,N
1545826915.6,286046999.5,N
1545826935.4,286047000.4,N
1545826955.2,286047002.3,N
1545826975.1,286047000.3,N
1545826976.0,286047000.3,N
1545826995.8,286046999.3,N
1545827015.7,286046996.5,N
1545827035.5,286046999.6,N
1545827055.3,286046999.2,N
1545827075.2,286047001.2,N
1545827095.0,286046998.7,N
1545827095.9,286046998.7,N
1545827115.8,286046999.1,N
1545827135.6,286046999.5,N
1545827155.4,286046996.5,N
1545827175.3,286046997.6,N
1545827195.1,286046997.7,N
1545827215.8,286046998.7,N
1545827235.7,286046997.3,N
1545827255.5,286046995.0,Y
1545827275.4,286046999.2,P
1545827295.2,286046998.8,P
1545827315.0,286046996.9,P
1545827315.9,286046996.9,Y
1545827335.8,286047002.7,P
1545827355.6,286047001.7,N
1545827375.4,286047005.9,P
1545827395.3,286047004.7,N
1545827415.1,286047005.6,N
1545827435.9,286047005.6,N
1545827455.7,286047004.1,N
1545827475.5,286047001.7,N
1545827495.4,286047005.6,N
1545827515.2,286047005.7,N
1545827535.0,286047005.6,N
1545827535.9,286047005.6,N
1545827555.8,286047003.6,N
1545827575.6,286047001.8,N
1545827595.5,286047002.0,N
1545827615.3,286047000.1,N
1545827635.1,286047000.1,N
1545827655.9,286046999.7,N
1545827675.7,286047002.5,N
1545827695.5,286047002.1,N
1545827715.4,286047000.2,N
1545827735.2,286047001.1,N
1545827755.0,286047000.0,N
1545827756.0,286047000.0,N
1545827775.8,286047002.3,N
1545827795.6,286047001.8,N
1545827815.5,286047000.7,N
1545827835.3,286047001.0,N
1545827855.1,286047001.0,N
1545827875.9,286046999.9,N
1545827895.7,286047000.0,N
1545827915.6,286047000.4,N
1545827935.4,286047000.2,N
1545827955.2,286047000.0,N
1545827975.1,286047000.4,N
1545827976.0,286047000.4,N
1545827995.8,286046999.9,N
1545828015.6,286046998.7,N
1545828035.5,286046999.3,N
1545828055.3,286046997.1,N
1545828075.2,286046997.1,N
1545828095.9,286046996.7,N
1545828115.7,286046998.9,N
1545828135.6,286046998.3,N
1545828155.4,286046998.4,N
1545828175.2,286046998.5,N
1545828195.1,286046997.3,N
1545828196.0,286046997.3,N
1545828215.8,286046996.6,N
1545828235.7,286046996.5,N
1545828255.5,286046996.6,N
1545828275.3,286046999.2,N
1545828295.2,286046999.5,N
1545828315.0,286046996.6,N
1545828315.9,286046996.6,N
1545828335.7,286046996.5,N
1545828355.6,286046998.6,N
1545828375.4,286047000.8,N
1545828395.3,286047001.2,N
1545828415.1,286046998.3,N
1545828416.0,286046998.3,N
1545828435.8,286046999.2,N
1545828455.7,286046996.9,N
1545828475.5,286046997.1,N
1545828495.4,286046997.1,N
1545828515.2,286046999.6,N
1545828535.0,286046999.5,N
1545828535.9,286046999.5,N
1545828555.8,286046996.5,N
1545828575.6,286046999.5,N
1545828595.4,286046998.9,N
1545828615.3,286047001.2,N
1545828635.1,286047000.1,N
1545828655.9,286047000.3,N
1545828675.7,286046998.2,N
1545828695.5,286046999.4,N
1545828715.4,286046996.6,N
1545828735.2,286046997.6,N
1545828755.0,286046995.1,Y
1545828755.9,286046995.1,P
1545828775.8,286046998.4,N
1545828795.6,286046999.0,N
1545828815.5,286047000.9,N
1545828835.3,286046999.0,N
1545828855.1,286047001.2,N
1545828875.9,286046998.7,N
1545828895.7,286046999.0,N
1545828915.5,286046999.4,N
1545828935.4,286046999.6,N
1545828955.2,286046999.0,N
1545828975.1,286046999.1,N
1545828976.0,286046999.1,N
1545828995.8,286046996.8,N
1545829015.6,286046999.5,N
1545829035.5,286046998.8,N
1545829055.3,286046998.3,N
1545829075.1,286047000.6,N
1545829095.9,286047002.3,N
1545829115.7,286046999.8,N
1545829165.6,286047000.9,E
1545829175.5,286047001.0,N
1545829195.3,286047000.8,P
